Change the Weather History Date:

Monday, September 30, 2013

  Actual Average Record
Temperature  
Mean Temperature 66 °F -  
Max Temperature 75 °F - - ()
Min Temperature 57 °F - - ()
Cooling Degree Days 2    
Growing Degree Days 16 (Base 50)    
Moisture  
Dew Point 58 °F    
Average Humidity 78    
Maximum Humidity 96    
Minimum Humidity 50    
Precipitation  
Precipitation 0.01 in - - ()
Sea Level Pressure  
Sea Level Pressure 30.06 in    
Wind  
Wind Speed 3 mph (SE)    
Max Wind Speed 10 mph    
Max Gust Speed 16 mph    
Visibility 10 miles    
Events Rain    
T = Trace of Precipitation, MM = Missing Value Source: NWS Daily Summary

Daily Weather History Graph

Daily Weather History Graph

Search for Another Location

Airport or City:

Trip Planner

Search our weather history database for the weather conditions in past years. The results will help you decide how hot, cold, wet, or windy it might be!

Date:

Astronomy

Sep. 30, 2013 Rise Set
Actual Time 6:41 AM CDT 6:32 PM CDT
Civil Twilight 6:16 AM CDT 6:57 PM CDT
Nautical Twilight 5:47 AM CDT 7:26 PM CDT
Astronomical Twilight 5:18 AM CDT 7:55 PM CDT
Moon 2:27 AM CDT (9/30) 3:54 PM CDT (9/30)
Length of Visible Light 12h 41m
Length of Day
11h 51m
Waning Crescent, 19% of the Moon is Illuminated
Sep 30
Waning Crescent
Oct 4
New
Oct 11
First Quarter
Oct 18
Full
Oct 26
Last Quarter

Hourly Weather History & Observations

Time (CDT) Temp. Dew Point Humidity Pressure Visibility Wind Dir Wind Speed Gust Speed Precip Events Conditions
12:15 AM 64.4 °F 57.9 °F 79% 30.04 in 10.0 mi SE 3.5 mph - N/A   Mostly Cloudy
12:35 AM 64.4 °F 58.3 °F 80% 30.03 in 10.0 mi ESE 3.5 mph - N/A   Mostly Cloudy
12:55 AM 64.4 °F 58.3 °F 80% 30.03 in 10.0 mi ESE 4.6 mph - N/A   Overcast
1:15 AM 64.2 °F 58.3 °F 81% 30.03 in 10.0 mi ESE 4.6 mph - N/A   Mostly Cloudy
1:35 AM 64.0 °F 58.6 °F 83% 30.03 in 10.0 mi ESE 3.5 mph - N/A   Mostly Cloudy
1:55 AM 63.7 °F 58.5 °F 83% 30.04 in 10.0 mi ESE 4.6 mph - N/A   Overcast
2:15 AM 63.9 °F 58.5 °F 83% 30.03 in 10.0 mi East 4.6 mph - N/A   Overcast
2:35 AM 63.7 °F 58.3 °F 83% 30.03 in 10.0 mi East 3.5 mph - N/A   Overcast
2:55 AM 63.5 °F 58.1 °F 83% 30.03 in 10.0 mi East 3.5 mph - N/A   Overcast
3:15 AM 63.5 °F 58.1 °F 83% 30.02 in 10.0 mi East 3.5 mph - N/A   Overcast
3:35 AM 63.1 °F 58.1 °F 84% 30.03 in 10.0 mi ESE 3.5 mph - N/A   Mostly Cloudy
3:55 AM 63.0 °F 57.9 °F 84% 30.03 in 10.0 mi Calm Calm - N/A   Mostly Cloudy
4:15 AM 63.0 °F 57.9 °F 84% 30.03 in 10.0 mi ESE 3.5 mph - N/A   Mostly Cloudy
4:35 AM 62.8 °F 57.6 °F 83% 30.04 in 10.0 mi Calm Calm - N/A   Mostly Cloudy
4:55 AM 62.8 °F 57.4 °F 82% 30.04 in 10.0 mi ESE 3.5 mph - N/A   Mostly Cloudy
5:15 AM 62.8 °F 57.0 °F 81% 30.05 in 10.0 mi SE 4.6 mph - N/A   Overcast
5:35 AM 62.6 °F 56.7 °F 81% 30.05 in 10.0 mi SE 4.6 mph - N/A   Overcast
5:55 AM 62.2 °F 56.7 °F 82% 30.05 in 10.0 mi ESE 4.6 mph - N/A   Mostly Cloudy
6:15 AM 62.1 °F 56.7 °F 82% 30.06 in 10.0 mi ESE 4.6 mph - N/A   Scattered Clouds
6:35 AM 61.9 °F 56.5 °F 82% 30.06 in 10.0 mi SE 4.6 mph - N/A   Mostly Cloudy
6:55 AM 62.1 °F 56.3 °F 81% 30.07 in 10.0 mi SE 4.6 mph - N/A   Overcast
7:15 AM 62.2 °F 56.3 °F 81% 30.07 in 10.0 mi Calm Calm - N/A   Overcast
7:35 AM 62.2 °F 56.5 °F 81% 30.08 in 10.0 mi SSW 4.6 mph - N/A   Overcast
7:55 AM 62.4 °F 57.0 °F 82% 30.09 in 10.0 mi Calm Calm - N/A   Overcast
8:15 AM 62.8 °F 57.0 °F 81% 30.09 in 10.0 mi Calm Calm - N/A   Overcast
8:35 AM 62.8 °F 57.2 °F 82% 30.10 in 10.0 mi Calm Calm - N/A   Overcast
8:55 AM 63.0 °F 57.4 °F 82% 30.10 in 10.0 mi Calm Calm - N/A   Overcast
9:15 AM 63.0 °F 57.7 °F 83% 30.10 in 10.0 mi Calm Calm - N/A   Overcast
9:35 AM 63.3 °F 57.6 °F 81% 30.10 in 10.0 mi SSE 3.5 mph - N/A   Overcast
9:55 AM 63.1 °F 58.1 °F 84% 30.11 in 10.0 mi Calm Calm - N/A   Overcast
10:15 AM 63.1 °F 58.1 °F 84% 30.11 in 5.0 mi ESE 3.5 mph - N/A Rain Heavy Rain
10:35 AM 62.6 °F 59.4 °F 89% 30.11 in 7.0 mi Calm Calm - 0.01 in Rain Rain
10:55 AM 63.5 °F 60.6 °F 90% 30.11 in 10.0 mi SSE 4.6 mph - 0.01 in   Mostly Cloudy
11:15 AM 66.0 °F 60.3 °F 82% 30.10 in 10.0 mi SSE 5.8 mph - N/A   Scattered Clouds
11:35 AM 67.8 °F 59.5 °F 75% 30.10 in 10.0 mi SSE 4.6 mph - N/A   Scattered Clouds
11:55 AM 68.0 °F 58.3 °F 71% 30.10 in 10.0 mi SSE 8.1 mph - N/A   Mostly Cloudy
12:15 PM 68.2 °F 58.3 °F 71% 30.09 in 10.0 mi SSE 8.1 mph - N/A   Overcast
12:35 PM 68.7 °F 58.6 °F 70% 30.09 in 10.0 mi SE 4.6 mph - N/A   Mostly Cloudy
12:55 PM 70.3 °F 59.0 °F 67% 30.08 in 10.0 mi South 9.2 mph - N/A   Scattered Clouds
1:15 PM 71.1 °F 58.8 °F 65% 30.07 in 10.0 mi SSE 5.8 mph - N/A   Scattered Clouds
1:35 PM 72.3 °F 59.2 °F 63% 30.06 in 10.0 mi South 8.1 mph - N/A   Scattered Clouds
1:55 PM 71.8 °F 58.5 °F 63% 30.05 in 10.0 mi SSE 5.8 mph - N/A   Scattered Clouds
2:15 PM 72.0 °F 58.5 °F 62% 30.04 in 10.0 mi South 6.9 mph - N/A   Scattered Clouds
2:35 PM 73.4 °F 59.0 °F 61% 30.03 in 10.0 mi SSE 10.4 mph 16.1 mph N/A   Scattered Clouds
2:55 PM 74.3 °F 59.5 °F 60% 30.03 in 10.0 mi SE 5.8 mph - N/A   Mostly Cloudy
3:15 PM 74.5 °F 58.8 °F 58% 30.02 in 10.0 mi SSW 6.9 mph - N/A   Scattered Clouds
3:35 PM 75.0 °F 58.3 °F 56% 30.02 in 10.0 mi ESE 4.6 mph - N/A   Clear
3:55 PM 75.4 °F 57.7 °F 54% 30.02 in 10.0 mi SSE 5.8 mph - N/A   Clear
4:15 PM 75.2 °F 56.5 °F 52% 30.02 in 10.0 mi SSE 5.8 mph - N/A   Clear
4:35 PM 75.4 °F 55.4 °F 50% 30.01 in 10.0 mi SSE 4.6 mph - N/A   Clear
4:55 PM 75.6 °F 55.6 °F 50% 30.02 in 10.0 mi ESE 5.8 mph - N/A   Scattered Clouds
5:15 PM 74.7 °F 56.5 °F 53% 30.02 in 10.0 mi SE 3.5 mph - N/A   Scattered Clouds
5:35 PM 72.7 °F 56.7 °F 57% 30.02 in 10.0 mi Calm Calm - N/A   Clear
5:55 PM 71.4 °F 57.4 °F 61% 30.02 in 10.0 mi SE 3.5 mph - N/A   Scattered Clouds
6:15 PM 70.0 °F 58.8 °F 68% 30.03 in 10.0 mi Calm Calm - N/A   Scattered Clouds
6:35 PM 67.6 °F 60.8 °F 79% 30.04 in 10.0 mi Calm Calm - N/A   Overcast
6:55 PM 66.7 °F 60.8 °F 81% 30.04 in 10.0 mi Calm Calm - N/A   Scattered Clouds
7:15 PM 65.5 °F 60.8 °F 85% 30.05 in 10.0 mi Calm Calm - N/A   Scattered Clouds
7:35 PM 64.6 °F 60.8 °F 88% 30.05 in 10.0 mi Calm Calm - N/A   Overcast
7:55 PM 64.4 °F 61.2 °F 89% 30.06 in 10.0 mi Calm Calm - N/A   Overcast
8:15 PM 63.9 °F 60.8 °F 90% 30.06 in 10.0 mi Calm Calm - N/A   Overcast
8:35 PM 63.1 °F 59.9 °F 89% 30.06 in 10.0 mi Calm Calm - N/A   Mostly Cloudy
8:55 PM 61.9 °F 59.5 °F 92% 30.07 in 10.0 mi Calm Calm - N/A   Scattered Clouds
9:15 PM 61.2 °F 59.2 °F 93% 30.07 in 10.0 mi Calm Calm - N/A   Clear
9:35 PM 60.1 °F 58.6 °F 95% 30.07 in 10.0 mi Calm Calm - N/A   Clear
9:55 PM 59.5 °F 58.3 °F 96% 30.07 in 10.0 mi Calm Calm - N/A   Clear
10:15 PM 59.2 °F 58.1 °F 96% 30.08 in 10.0 mi Calm Calm - N/A   Clear
10:35 PM 59.2 °F 57.9 °F 96% 30.08 in 10.0 mi Calm Calm - N/A   Clear
10:55 PM 58.5 °F 57.4 °F 96% 30.08 in 10.0 mi Calm Calm - N/A   Clear
11:15 PM 58.3 °F 57.2 °F 96% 30.07 in 10.0 mi Calm Calm - N/A   Clear
11:35 PM 58.1 °F 56.8 °F 96% 30.07 in 10.0 mi Calm Calm - N/A   Clear
11:55 PM 57.7 °F 56.5 °F 96% 30.07 in 10.0 mi Calm Calm - N/A   Clear